CST,Max TemperatureF,Mean TemperatureF,Min TemperatureF,Max Dew PointF,MeanDew PointF,Min DewpointF,Max Humidity, Mean Humidity, Min Humidity, Max Sea Level PressureIn, Mean Sea Level PressureIn, Min Sea Level PressureIn, Max VisibilityMiles, Mean VisibilityMiles, Min VisibilityMiles, Max Wind SpeedMPH, Mean Wind SpeedMPH, Max Gust SpeedMPH,PrecipitationIn, CloudCover, Events, WindDirDegrees
2013-1-1,34,28,22,32,26,14,96,85,74,30.26,30.15,30.07,10,6,1,14,7,20,0.01,7,,340
2013-1-2,31,23,14,14,11,8,80,62,43,30.33,30.28,30.25,10,10,9,7,2,10,0.00,0,,328
2013-1-3,36,25,13,24,19,10,81,70,58,30.43,30.36,30.28,10,9,8,9,2,10,0.00,2,,263
2013-1-4,37,29,21,23,20,16,88,72,56,30.49,30.43,30.39,10,9,5,12,2,16,0.00,1,,257
2013-1-5,39,29,18,29,25,15,92,81,70,30.40,30.31,30.19,10,8,4,12,4,14,0.00,5,,200
2013-1-6,38,29,20,32,26,19,89,76,63,30.44,30.26,30.13,10,9,6,20,8,26,0.00,5,,278
2013-1-7,40,29,17,27,21,15,92,76,59,30.51,30.39,30.27,10,7,2,10,2,13,0.00,0,,130
2013-1-8,51,38,24,34,28,22,85,68,50,30.32,30.25,30.21,10,9,5,9,2,13,0.00,2,,163
2013-1-9,56,47,38,45,40,33,92,79,65,30.51,30.40,30.25,10,8,1,12,3,14,0.04,4,Rain,279
2013-1-10,62,52,42,58,47,34,94,83,61,30.48,30.19,29.91,10,7,2,14,7,18,0.24,7,Rain,92
2013-1-11,61,54,48,58,52,45,94,79,57,29.98,29.92,29.87,10,8,1,24,11,32,0.87,4,Rain-Thunderstorm,204
2013-1-12,68,60,52,63,58,50,93,85,77,29.99,29.86,29.70,10,6,1,28,7,35,1.93,7,Rain-Thunderstorm,191
2013-1-13,57,41,25,54,33,18,92,84,75,30.33,29.99,29.78,10,6,1,22,10,29,1.62,7,Rain-Thunderstorm,329
2013-1-14,27,24,20,19,17,13,81,75,68,30.48,30.41,30.32,10,10,10,16,8,20,0.00,2,,360
2013-1-15,33,28,22,25,21,18,88,76,63,30.39,30.28,30.15,10,8,6,17,7,21,0.00,4,,13
2013-1-16,35,33,30,26,24,22,78,67,56,30.17,30.14,30.08,10,10,7,10,5,13,0.00,4,,291
2013-1-17,46,37,28,32,26,20,85,73,60,30.51,30.29,30.17,10,10,8,21,7,29,0.00,2,,344
2013-1-18,45,33,20,25,22,17,84,65,45,30.57,30.44,30.27,10,10,10,15,7,21,0.00,0,,195
2013-1-19,57,46,34,35,30,25,70,56,41,30.27,30.14,30.01,10,10,10,26,15,33,0.00,0,,212
2013-1-20,45,36,26,35,19,13,76,56,35,30.33,30.25,30.10,10,10,10,16,6,22,0.00,0,,325
2013-1-21,29,23,17,17,7,-4,74,54,33,30.39,30.31,30.24,10,10,10,23,12,29,0.00,3,,312
2013-1-22,23,19,14,7,0,-4,55,46,36,30.51,30.44,30.40,10,10,10,15,5,21,0.00,4,,308
2013-1-23,40,27,14,20,14,7,80,59,37,30.41,30.29,30.17,10,10,10,13,4,20,0.00,0,,233
2013-1-24,32,26,19,16,5,0,62,45,28,30.61,30.48,30.31,10,10,10,20,9,26,0.00,1,,48
2013-1-25,38,32,25,20,15,3,75,54,33,30.33,30.19,30.14,10,10,10,14,5,18,T,5,,304
2013-1-26,38,30,21,21,17,15,84,64,44,30.41,30.36,30.25,10,10,7,10,3,14,0.00,0,,36
2013-1-27,47,34,20,41,30,17,92,82,72,30.38,30.26,30.12,10,7,3,15,7,21,0.17,5,Rain,126
2013-1-28,59,53,47,54,48,39,86,75,63,30.13,30.07,30.04,10,8,4,22,10,28,0.22,7,Rain,188
2013-1-29,69,62,54,59,54,50,86,77,68,30.03,29.80,29.46,10,9,3,32,13,43,0.07,6,Rain,179
2013-1-30,72,52,31,50,39,19,96,80,63,29.88,29.54,29.37,10,7,2,31,17,43,1.28,8,Rain-Thunderstorm,279
2013-1-31,37,27,17,29,20,7,85,69,52,30.32,30.05,29.90,10,7,0,28,15,40,0.06,7,Fog-Snow,281